Weather observations for the past three days for
Hamilton Municipal Airport
Imperial (Metric)
Date Time (edt) Wind (mph) Vis. (mi.) Weather Sky Cond. Temperature (ºF) Relative Humidity Wind Chill (°F) Heat Index (°F) Pressure Precipitation (in)
Air Dwpt 6 hour altimeter (in) sea level (mb) 1 hr 3 hr 6 hr
Max. Min.
18 17:35 Calm 10.00 Mostly Cloudy SCT042 BKN050 68 51.8 56% 30.03 0.0
18 17:15 NW 8 G 17 10.00 Mostly Cloudy SCT043 BKN050 71.6 51.8 50% 30.03 0.0
18 16:55 Calm 10.00 Mostly Cloudy SCT043 BKN050 BKN060 69.8 51.8 53% 30.02 0.0
18 16:35 NW 3 10.00 Mostly Cloudy SCT043 BKN050 69.8 51.8 53% 30.02 0.0
18 16:15 NW 8 10.00 Partly Cloudy SCT045 SCT060 71.6 51.8 50% 30.02 0.0
18 15:55 NW 12 G 17 10.00 Partly Cloudy SCT045 SCT060 71.6 51.8 50% 30.02 0.0
18 15:35 NW 10 10.00 Mostly Cloudy BKN045 71.6 51.8 50% 30.02 0.0
18 15:15 NW 9 G 20 10.00 Mostly Cloudy SCT041 BKN050 BKN055 71.6 53.6 53% 30.01 0.0
18 14:55 NW 12 G 17 10.00 Mostly Cloudy SCT046 BKN050 71.6 51.8 50% 30 0.0
18 14:35 NW 9 G 18 10.00 Mostly Cloudy SCT044 BKN050 71.6 53.6 53% 29.99 0.0
18 14:15 Calm 10.00 Mostly Cloudy SCT042 BKN050 BKN065 71.6 53.6 53% 29.99 0.0
18 13:55 NW 9 10.00 Mostly Cloudy SCT039 SCT046 BKN055 71.6 53.6 53% 30 0.0
18 13:35 NW 5 10.00 Partly Cloudy SCT043 SCT048 SCT065 71.6 53.6 53% 29.99 0.0
18 13:15 NW 10 10.00 Mostly Cloudy SCT043 BKN050 71.6 53.6 53% 29.99 0.0
18 12:55 Calm 10.00 Partly Cloudy SCT060 SCT120 69.8 51.8 53% 30 0.0
18 12:35 NW 10 10.00 Partly Cloudy SCT043 SCT049 SCT060 71.6 51.8 50% 29.99 0.0
18 12:15 NW 8 10.00 Mostly Cloudy SCT042 BKN060 69.8 51.8 53% 29.99 0.0
18 11:55 NW 7 10.00 Partly Cloudy SCT042 SCT050 71.6 51.8 50% 29.99 0.0
18 11:35 Calm 10.00 Partly Cloudy SCT042 SCT050 SCT060 71.6 53.6 53% 29.99 0.0
18 11:15 NW 6 G 16 10.00 Partly Cloudy SCT044 SCT049 69.8 51.8 53% 30 0.0
18 10:55 Calm 10.00 Fair CLR 69.8 51.8 53% 29.99 0.0
18 10:35 NW 10 10.00 Fair CLR 69.8 51.8 53% 29.98 0.0
18 10:15 NW 9 10.00 Fair CLR 69.8 51.8 53% 29.99 0.0
18 09:55 NW 8 10.00 Fair CLR 69.8 51.8 53% 29.98 0.0
18 09:35 NW 7 10.00 Fair CLR 69.8 53.6 57% 29.98 0.0
18 09:15 NW 6 10.00 Fair CLR 68 53.6 60% 29.98 0.0
18 08:55 NW 6 10.00 Fair CLR 68 55.4 64% 29.98 0.0
18 08:35 N 7 10.00 Partly Cloudy SCT017 68 55.4 64% 29.97 0.0
18 08:15 NW 5 10.00 Partly Cloudy SCT017 64.4 59 83% 29.97 0.0
18 07:55 NW 7 10.00 Partly Cloudy SCT048 64.4 59 83% 29.97 0.0
18 07:35 Calm 10.00 Mostly Cloudy SCT024 SCT046 BKN055 64.4 59 83% 29.97 0.0
18 07:15 Calm 10.00 Mostly Cloudy SCT024 BKN044 64.4 59 83% 29.96 0.0
18 06:55 Calm 10.00 Partly Cloudy SCT024 SCT055 60.8 0 0% 29.95 0.0
18 06:35 Calm 10.00 Partly Cloudy SCT055 59 0 0% 29.95 0.0
18 06:15 Calm 7.00 Fair CLR 59 0 0% 29.94 0.0
18 05:55 Calm 10.00 Fair CLR 59 59 100% 29.94 0.0
18 05:35 Calm 7.00 Fair CLR 59 59 100% 29.93 0.0
18 05:15 Calm 10.00 Fair CLR 59 59 100% 29.92 0.0
18 04:55 Calm 10.00 Fair CLR 59 59 100% 29.91 0.0
18 04:35 Calm 10.00 Fair CLR 59 59 100% 29.9 0.0
18 04:15 Calm 10.00 Fair CLR 59 59 100% 29.9 0.0
18 03:55 Calm 10.00 Fair CLR 60.8 60.8 100% 29.9 0.0
18 03:35 Calm 10.00 Fair CLR 60.8 0 0% 29.89 0.0
18 03:15 Calm 10.00 Fair CLR 60.8 0 0% 29.89 0.0
18 02:55 Calm 5.00 Fair with Haze CLR 60.8 0 0% 29.89 0.0
18 02:35 Calm 4.00 Fog/Mist CLR 62.6 62.6 100% 29.89 0.0
18 02:15 Calm 7.00 Fair CLR 62.6 62.6 100% 29.89 0.0
18 01:55 Calm 7.00 Partly Cloudy SCT110 64.4 64.4 100% 29.89 0.0
18 01:35 Calm 7.00 Mostly Cloudy BKN110 64.4 64.4 100% 29.89 0.0
18 01:15 Calm 10.00 Overcast OVC110 64.4 64.4 100% 29.9 0.0
18 00:55 Calm 10.00 Mostly Cloudy BKN110 64.4 64.4 100% 29.9 0.0
18 00:35 Calm 10.00 Mostly Cloudy BKN110 66.2 64.4 94% 29.9 0.0
18 00:15 Calm 10.00 Overcast OVC110 64.4 64.4 100% 29.9 0.0
17 23:55 Calm 7.00 Mostly Cloudy BKN120 66.2 64.4 94% 29.9 0.0
17 23:35 Calm 10.00 Partly Cloudy SCT110 66.2 64.4 94% 29.89 0.0
17 23:15 Calm 10.00 Mostly Cloudy BKN100 66.2 64.4 94% 29.88 0.0
17 22:55 Calm 10.00 Partly Cloudy SCT110 68 64.4 88% 29.87 0.0
17 22:35 Calm 10.00 Fair CLR 68 64.4 88% 29.88 0.0
17 22:15 Calm 10.00 Fair CLR 69.8 64.4 83% 29.89 0.0
17 21:55 Calm 10.00 Partly Cloudy SCT035 69.8 64.4 83% 29.89 0.0
17 21:35 Calm 10.00 Mostly Cloudy SCT013 SCT023 BKN042 69.8 64.4 83% 29.89 0.0
17 21:15 Calm 10.00 Mostly Cloudy SCT013 BKN025 69.8 64.4 83% 29.89 0.0
17 20:55 Calm 10.00 Partly Cloudy SCT019 SCT027 SCT035 71.6 66.2 83% 29.88 0.0
17 20:35 Calm 10.00 Mostly Cloudy SCT013 SCT018 BKN023 71.6 66.2 83% 29.88 0.0
17 20:15 Calm 10.00 Partly Cloudy SCT013 SCT021 SCT070 71.6 68 88% 29.87 0.0
17 19:55 Calm 10.00 Mostly Cloudy SCT013 SCT017 BKN026 71.6 68 88% 29.87 0.0
17 19:35 Calm 10.00 Mostly Cloudy SCT011 SCT016 BKN043 71.6 66.2 83% 29.88 0.0
17 19:15 Calm 10.00 Light Drizzle CLR 71.6 66.2 83% 29.87 0.0
17 18:55 Calm 10.00 Partly Cloudy SCT014 SCT018 71.6 66.2 83% 29.86 0.0
17 18:35 Calm 10.00 Light Rain SCT014 BKN022 BKN036 73.4 68 83% 29.85 0.0
17 18:15 Calm 10.00 Partly Cloudy SCT023 SCT027 SCT036 73.4 66.2 78% 29.84 0.0
17 17:55 Calm 10.00 Light Rain SCT021 73.4 66.2 78% 29.84 0.0
17 17:35 Calm 10.00 Partly Cloudy SCT023 75.2 66.2 74% 77 29.84 0.0
17 17:15 Calm 10.00 Fair CLR 75.2 64.4 69% 77 29.84 0.0
17 16:55 Calm 10.00 Fair CLR 75.2 64.4 69% 77 29.84 0.0
17 16:35 Calm 10.00 Light Rain CLR 77 64.4 65% 79 29.84 0.0
17 16:15 Calm 10.00 Fair CLR 77 64.4 65% 79 29.84 0.0
17 15:55 NW 8 10.00 Partly Cloudy SCT035 SCT043 77 64.4 65% 79 29.84 0.0
17 15:35 Calm 10.00 Fair CLR 78.8 64.4 61% 81 29.85 0.0
17 15:15 W 7 10.00 Partly Cloudy SCT032 SCT060 78.8 64.4 61% 81 29.85 0.0
17 14:55 NW 7 10.00 Partly Cloudy SCT032 SCT041 SCT060 80.6 64.4 58% 82 29.85 0.0
17 14:35 NW 8 10.00 Fair CLR 80.6 62.6 54% 82 29.84 0.0
17 14:15 NW 8 10.00 Fair CLR 80.6 64.4 58% 82 29.84 0.0
17 13:55 NW 9 10.00 Partly Cloudy SCT030 SCT065 SCT080 78.8 64.4 61% 81 29.84 0.0
17 13:35 NW 3 10.00 Partly Cloudy SCT028 SCT040 SCT070 78.8 64.4 61% 81 29.85 0.0
17 13:15 W 7 10.00 Partly Cloudy SCT024 SCT050 SCT065 78.8 66.2 65% 81 29.86 0.0
17 12:35 Calm 10.00 Mostly Cloudy SCT024 BKN029 BKN035 77 64.4 65% 79 29.86 0.0
17 12:15 Calm 10.00 Overcast BKN026 OVC032 77 64.4 65% 79 29.87 0.0
17 11:55 Calm 10.00 Overcast OVC026 77 64.4 65% 79 29.87 0.0
17 11:35 Calm 10.00 Mostly Cloudy BKN026 BKN032 BKN065 77 64.4 65% 79 29.87 0.0
17 11:15 Calm 10.00 Mostly Cloudy SCT028 BKN033 BKN041 77 64.4 65% 79 29.87 0.0
17 10:55 Calm 10.00 Mostly Cloudy SCT031 BKN041 BKN055 77 64.4 65% 79 29.87 0.0
17 10:35 Calm 10.00 Partly Cloudy SCT033 SCT041 SCT090 75.2 64.4 69% 77 29.87 0.0
17 10:15 Calm 10.00 Fair CLR 75.2 64.4 69% 77 29.86 0.0
17 09:55 Calm 10.00 Partly Cloudy SCT042 SCT085 73.4 64.4 74% 29.86 0.0
17 09:35 Calm 10.00 Mostly Cloudy BKN042 BKN060 73.4 64.4 74% 29.87 0.0
17 09:15 Calm 10.00 Overcast SCT044 BKN050 OVC060 73.4 64.4 74% 29.87 0.0
17 08:55 Calm 10.00 Mostly Cloudy SCT044 BKN060 73.4 64.4 74% 29.86 0.0
17 08:35 Calm 10.00 Partly Cloudy SCT070 SCT100 73.4 64.4 74% 29.85 0.0
17 08:15 Calm 10.00 Mostly Cloudy BKN046 BKN080 71.6 64.4 78% 29.86 0.0
17 07:55 Calm 10.00 Mostly Cloudy BKN044 71.6 64.4 78% 29.86 0.0
17 07:35 Calm 10.00 Fair CLR 69.8 62.6 78% 29.86 0.0
17 07:15 Calm 10.00 Fair CLR 68 64.4 88% 29.85 0.0
17 06:55 Calm 10.00 Fair CLR 66.2 64.4 94% 29.85 0.0
17 06:35 Calm 10.00 Fair CLR 64.4 0 0% 29.85 0.0
17 06:15 Calm 10.00 Fair CLR 62.6 62.6 100% 29.84 0.0
17 05:55 Calm 10.00 Partly Cloudy SCT055 SCT080 62.6 0 0% 29.85 0.0
17 05:35 Calm 10.00 Fair CLR 64.4 0 0% 29.85 0.0
17 05:15 Calm 10.00 Fair CLR 62.6 0 0% 29.85 0.0
17 04:55 Calm 10.00 Fair CLR 62.6 0 0% 29.84 0.0
17 04:35 Calm 10.00 Fair CLR 62.6 0 0% 29.84 0.0
17 04:15 Calm 10.00 Fair CLR 64.4 0 0% 29.84 0.0
17 03:55 Calm 7.00 Fair CLR 62.6 0 0% 29.84 0.0
17 03:35 Calm 7.00 Fair CLR 62.6 0 0% 29.83 0.0
17 03:15 Calm 10.00 Fair CLR 62.6 0 0% 29.84 0.0
17 02:55 Calm 10.00 Fair CLR 64.4 0 0% 29.84 0.0
17 02:35 Calm 7.00 Partly Cloudy SCT110 62.6 0 0% 29.85 0.0
17 02:15 Calm 7.00 Fair CLR 62.6 0 0% 29.85 0.0
17 01:55 Calm 7.00 Fair CLR 62.6 0 0% 29.85 0.0
17 01:35 Calm 10.00 Fair CLR 64.4 0 0% 29.85 0.0
17 01:15 Calm 10.00 Fair CLR 64.4 0 0% 29.85 0.0
17 00:55 Calm 10.00 Fair CLR 64.4 0 0% 29.85 0.0
17 00:35 Calm 10.00 Fair CLR 64.4 0 0% 29.85 0.0
17 00:15 Calm 7.00 Fair CLR 64.4 0 0% 29.85 0.0
16 23:55 Calm 10.00 Fair CLR 64.4 0 0% 29.86 0.0
16 23:35 Calm 10.00 Fair CLR 64.4 0 0% 29.86 0.0
16 23:15 Calm 10.00 Partly Cloudy SCT037 64.4 64.4 100% 29.86 0.0
16 22:55 Calm 10.00 Partly Cloudy SCT037 66.2 66.2 100% 29.86 0.0
16 22:35 Calm 10.00 Fair CLR 66.2 66.2 100% 29.87 0.0
16 22:15 Calm 10.00 Fair CLR 68 68 100% 29.86 0.0
16 21:55 Calm 10.00 Fair CLR 68 64.4 88% 29.86 0.0
16 21:35 Calm 10.00 Fair CLR 68 64.4 88% 29.86 0.0
16 21:15 Calm 10.00 Fair CLR 69.8 64.4 83% 29.85 0.0
16 20:55 Calm 10.00 Fair CLR 71.6 64.4 78% 29.84 0.0
16 20:35 Calm 10.00 Fair CLR 71.6 64.4 78% 29.84 0.0
16 20:15 Calm 10.00 Fair CLR 71.6 64.4 78% 29.84 0.0
16 19:55 Calm 10.00 Partly Cloudy SCT023 73.4 64.4 74% 29.83 0.0
16 19:35 Calm 10.00 Partly Cloudy SCT022 SCT028 73.4 64.4 74% 29.82 0.0
16 19:15 Calm 10.00 Fair CLR 75.2 66.2 74% 77 29.8 0.0
16 18:55 W 3 10.00 Partly Cloudy SCT027 SCT034 75.2 66.2 74% 77 29.78 0.0
16 18:35 W 7 10.00 Partly Cloudy SCT055 73.4 66.2 78% 29.78 0.0
16 18:15 W 8 10.00 Mostly Cloudy SCT017 SCT027 BKN049 73.4 68 83% 29.77 0.0
16 17:55 Calm 7.00 Mostly Cloudy SCT018 SCT031 BKN049 73.4 68 83% 29.77 0.0
16 17:35 Calm 7.00 Heavy Rain SCT036 BKN060 OVC085 71.6 68 88% 29.75 0.0
16 17:15 Calm 10.00 Mostly Cloudy SCT014 SCT024 BKN070 71.6 68 88% 29.75 0.0
16 16:55 Calm 10.00 Light Rain BKN014 BKN030 OVC080 71.6 68 88% 29.74 0.0
16 16:35 NW 6 7.00 Rain OVC014 71.6 68 88% 29.73 0.0
16 16:15 NW 9 G 17 3.00 Light Rain SCT014 BKN019 OVC027 71.6 68 88% 29.72 0.0
16 15:55 NW 13 G 21 10.00 Overcast SCT016 BKN027 OVC095 71.6 66.2 83% 29.7 0.0
16 15:35 W 7 G 39 2.00 Heavy Rain SCT016 BKN046 BKN055 78.8 68 70% 81 29.67 0.0
16 15:15 S 14 G 24 10.00 Partly Cloudy SCT044 SCT050 SCT060 86 68 55% 89 29.62 0.0
16 14:55 S 17 G 26 10.00 Partly Cloudy SCT048 SCT050 87.8 68 52% 91 29.63 0.0
16 14:35 S 12 G 18 10.00 Partly Cloudy SCT042 SCT050 86 69.8 59% 91 29.66 0.0
16 14:15 S 13 G 25 10.00 Partly Cloudy SCT040 SCT060 86 69.8 59% 91 29.69 0.0
16 13:55 S 13 G 20 10.00 Partly Cloudy SCT038 SCT045 SCT060 86 69.8 59% 91 29.71 0.0
16 13:35 S 12 G 23 10.00 Fair CLR 84.2 68 58% 87 29.72 0.0
16 13:15 S 13 G 21 10.00 Fair CLR 82.4 68 62% 85 29.73 0.0
16 12:55 S 14 10.00 Fair CLR 82.4 68 62% 85 29.75 0.0
16 12:35 SE 14 G 21 10.00 Fair CLR 80.6 66.2 62% 83 29.76 0.0
16 12:15 S 12 G 20 10.00 Fair CLR 80.6 64.4 58% 82 29.78 0.0
16 11:55 S 13 G 16 10.00 Fair CLR 78.8 64.4 61% 81 29.79 0.0
16 11:35 S 9 10.00 Fair CLR 78.8 66.2 65% 81 29.79 0.0
16 11:15 S 12 G 16 10.00 Fair CLR 78.8 64.4 61% 81 29.79 0.0
16 10:55 S 10 10.00 Fair CLR 78.8 64.4 61% 81 29.81 0.0
16 10:35 S 7 10.00 Fair CLR 77 64.4 65% 79 29.82 0.0
16 10:15 S 8 10.00 Fair CLR 75.2 66.2 74% 77 29.82 0.0
16 09:55 SE 9 10.00 Partly Cloudy SCT037 SCT046 75.2 64.4 69% 77 29.82 0.0
16 09:35 S 7 10.00 Mostly Cloudy SCT014 SCT037 BKN046 73.4 64.4 74% 29.83 0.0
16 09:15 SE 9 10.00 Partly Cloudy SCT014 73.4 66.2 78% 29.83 0.0
16 08:55 S 7 10.00 Fair CLR 71.6 64.4 78% 29.83 0.0
16 08:35 S 5 10.00 Fair CLR 71.6 64.4 78% 29.84 0.0
16 08:15 Calm 10.00 Fair CLR 71.6 64.4 78% 29.83 0.0
16 07:55 Calm 10.00 Fair CLR 69.8 64.4 83% 29.83 0.0
16 07:35 Calm 10.00 Fair CLR 69.8 64.4 83% 29.84 0.0
16 07:15 Calm 10.00 Fair CLR 68 68 100% 29.84 0.0
16 06:55 Calm 7.00 Fair CLR 68 0 0% 29.84 0.0
16 06:35 Calm 3.00 Fog/Mist SCT001 66.2 0 0% 29.84 0.0
16 06:15 Calm 3.00 Fog/Mist SCT001 64.4 0 0% 29.84 0.0
16 05:55 Calm 2.50 Fog/Mist CLR 64.4 64.4 100% 29.84 0.0
16 05:35 Calm 4.00 Fog/Mist CLR 66.2 66.2 100% 29.84 0.0
16 05:15 Calm 10.00 Partly Cloudy SCT029 68 64.4 88% 29.83 0.0
16 04:55 Calm 7.00 Overcast SCT023 OVC029 68 66.2 94% 29.84 0.0
16 04:35 Calm 10.00 Overcast SCT018 SCT024 OVC031 69.8 64.4 83% 29.84 0.0
16 04:15 Calm 10.00 Overcast OVC031 69.8 64.4 83% 29.83 0.0
16 03:55 Calm 10.00 Overcast SCT017 OVC029 68 64.4 88% 29.83 0.0
16 03:35 Calm 10.00 Overcast BKN015 OVC025 69.8 64.4 83% 29.83 0.0
16 03:15 NW 3 10.00 Overcast BKN014 OVC024 69.8 64.4 83% 29.82 0.0
16 02:55 Calm 10.00 Overcast OVC014 69.8 64.4 83% 29.81 0.0
16 02:35 W 6 10.00 Overcast OVC014 69.8 64.4 83% 29.81 0.0
16 02:15 Calm 5.00 Rain OVC014 68 64.4 88% 29.8 0.0
16 01:55 Calm 7.00 Overcast OVC016 68 64.4 88% 29.8 0.0
16 01:35 Calm 5.00 Drizzle BKN018 OVC025 68 64.4 88% 29.79 0.0
16 01:15 Calm 7.00 Overcast SCT014 SCT020 OVC027 68 64.4 88% 29.79 0.0
16 00:55 Calm 5.00 Heavy Drizzle SCT016 BKN021 OVC026 68 64.4 88% 29.8 0.0
16 00:35 Calm 10.00 Overcast SCT010 BKN018 OVC024 68 64.4 88% 29.79 0.0
16 00:15 S 3 7.00 Overcast BKN013 OVC021 68 64.4 88% 29.8 0.0
15 23:55 S 5 10.00 Overcast SCT011 BKN015 OVC028 68 64.4 88% 29.79 0.0
15 23:35 S 6 10.00 Overcast SCT015 SCT023 OVC031 68 64.4 88% 29.81 0.0
15 23:15 S 7 10.00 Overcast BKN031 OVC039 68 64.4 88% 29.8 0.0
15 22:55 Calm 10.00 Overcast BKN033 BKN039 OVC060 68 64.4 88% 29.8 0.0
15 22:35 Calm 10.00 Mostly Cloudy SCT033 SCT048 BKN065 68 64.4 88% 29.8 0.0
15 22:15 Calm 10.00 Partly Cloudy SCT048 SCT065 SCT110 68 64.4 88% 29.81 0.0
15 21:55 Calm 10.00 Partly Cloudy SCT065 SCT110 68 64.4 88% 29.81 0.0
15 21:35 Calm 10.00 Light Rain SCT038 SCT049 OVC060 68 64.4 88% 29.81 0.0
15 21:15 Calm 7.00 Rain BKN055 BKN070 OVC080 68 64.4 88% 29.82 0.0
15 20:55 Calm 10.00 Light Rain SCT031 BKN055 BKN075 68 64.4 88% 29.83 0.0
15 20:35 Calm 7.00 Rain SCT050 BKN060 OVC075 68 64.4 88% 29.82 0.0
15 20:15 Calm 3.00 Heavy Rain SCT024 BKN050 OVC060 68 64.4 88% 29.83 0.0
15 19:55 Calm 5.00 Heavy Rain SCT025 BKN033 OVC060 68 62.6 83% 29.85 0.0
15 19:35 W 10 G 21 5.00 Rain SCT034 BKN060 OVC100 68 62.6 83% 29.84 0.0
15 19:15 Calm 10.00 Partly Cloudy SCT100 80.6 64.4 58% 82 29.75 0.0
15 18:55 Calm 10.00 Fair CLR 80.6 64.4 58% 82 29.75 0.0
15 18:35 Calm 10.00 Fair CLR 80.6 64.4 58% 82 29.75 0.0
15 18:15 SE 7 10.00 Fair CLR 82.4 64.4 55% 84 29.76 0.0
15 17:55 S 5 10.00 Fair CLR 84.2 64.4 51% 86 29.77 0.0
Date Time (edt) Wind (mph) Vis. (mi.) Weather Sky Cond. Air Dwpt Max. Min. Relative Humidity Wind Chill (°F) Heat Index (°F) altimeter (in) sea level (mb) 1 hr 3 hr 6 hr
6 hour
Temperature (ºF) Pressure Precipitation (in)